This is the latest recevied weather packets stored in our database for station/object KO4ZGL-13. If no packets are shown the sender has not sent any weather packets the latest 10 day(s).
| Time | Temp. | Humidity | Pressure | Rain* | Wind** | Luminosity | Snow |
|---|---|---|---|---|---|---|---|
| 1788543053 | 32.78° C | 76% | 1016.5 hPa | 0 mm | - | 147 W/m² | - |
| 1788542749 | 32.78° C | 74% | 1016.6 hPa | 0 mm | - | 126 W/m² | - |
| 1788542448 | 33.33° C | 73% | 1016.8 hPa | 0 mm | - | 121 W/m² | - |
| 1788542143 | 33.89° C | 69% | 1016.7 hPa | 0 mm | - | 108 W/m² | - |
| 1788541839 | 33.89° C | 70% | 1016.9 hPa | 0 mm | - | 724 W/m² | - |
| 1788541534 | 33.89° C | 70% | 1016.7 hPa | 0 mm | - | 138 W/m² | - |
| 1788541231 | 33.89° C | 71% | 1016.7 hPa | 0 mm | - | 544 W/m² | - |
| 1788540929 | 34.44° C | 70% | 1016.9 hPa | 0 mm | - | 704 W/m² | - |
| 1788540629 | 34.44° C | 69% | 1017.2 hPa | 0 mm | - | 732 W/m² | - |
| 1788540324 | 33.89° C | 69% | 1017 hPa | 0 mm | - | 761 W/m² | - |
| 1788540020 | 32.78° C | 73% | 1017.1 hPa | 0 mm | - | 801 W/m² | - |
| 1788539719 | 32.78° C | 75% | 1017.2 hPa | 0 mm | - | 870 W/m² | - |
| 1788539414 | 32.78° C | 73% | 1017.4 hPa | 0 mm | - | 215 W/m² | - |
| 1788539109 | 33.33° C | 71% | 1017.5 hPa | 0 mm | - | 157 W/m² | - |
| 1788538805 | 33.89° C | 69% | 1017.5 hPa | 0 mm | - | 737 W/m² | - |
| 1788538499 | 33.33° C | 71% | 1017.3 hPa | 0 mm | - | 782 W/m² | - |
| 1788538195 | 32.22° C | 73% | 1017.4 hPa | 0 mm | - | 757 W/m² | - |
| 1788537889 | 32.22° C | 75% | 1017.6 hPa | 0 mm | - | 112 W/m² | - |
| 1788537585 | 33.89° C | 71% | 1017.7 hPa | 0 mm | - | 162 W/m² | - |
| 1788537285 | 33.89° C | 70% | 1017.7 hPa | 0 mm | - | 771 W/m² | - |
| 1788536983 | 33.89° C | 71% | 1017.6 hPa | 0 mm | - | 714 W/m² | - |
| 1788536678 | 33.33° C | 71% | 1017.6 hPa | 0 mm | - | 757 W/m² | - |
| 1788536373 | 33.89° C | 71% | 1017.7 hPa | 0 mm | - | 800 W/m² | - |
| 1788536068 | 33.33° C | 74% | 1017.6 hPa | 0 mm | - | 819 W/m² | - |
| 1788535765 | 33.33° C | 72% | 1018 hPa | 0 mm | - | 863 W/m² | - |
* Rain latest hour (hover to see other rain measurements)
** Current wind speed in m/s (hover to see current wind gust speed)